This is the latest recevied weather packets stored in our database for station/object WC4PEM-15. If no packets are shown the sender has not sent any weather packets the latest 10 day(s).
| Time | Temp. | Humidity | Pressure | Rain* | Wind** | Luminosity | Snow |
|---|---|---|---|---|---|---|---|
| 1787428329 | 32.78° C | 61% | 1014.8 hPa | 0 mm | - | - | - |
| 1787428097 | 32.78° C | 64% | 1015.1 hPa | 0 mm | - | - | - |
| 1787428029 | 32.78° C | 64% | 1015.1 hPa | 0 mm | - | - | - |
| 1787427823 | 32.78° C | 66% | 1015.1 hPa | 0 mm | - | - | - |
| 1787427729 | 32.78° C | 66% | 1015.1 hPa | 0 mm | - | - | - |
| 1787427535 | 32.78° C | 63% | 1015.1 hPa | 0 mm | - | - | - |
| 1787427429 | 32.78° C | 63% | 1015.1 hPa | 0 mm | - | - | - |
| 1787427181 | 32.78° C | 65% | 1015 hPa | 0 mm | - | - | - |
| 1787427129 | 32.78° C | 65% | 1015 hPa | 0 mm | - | - | - |
| 1787426917 | 32.78° C | 62% | 1015.1 hPa | 0 mm | - | - | - |
| 1787426829 | 32.78° C | 62% | 1015.1 hPa | 0 mm | - | - | - |
| 1787426587 | 32.22° C | 63% | 1015.2 hPa | 0 mm | - | - | - |
| 1787426529 | 32.22° C | 63% | 1015.2 hPa | 0 mm | - | - | - |
| 1787426309 | 32.22° C | 63% | 1015.5 hPa | 0 mm | - | - | - |
| 1787426229 | 32.22° C | 63% | 1015.5 hPa | 0 mm | - | - | - |
| 1787425976 | 32.22° C | 64% | 1015.6 hPa | 0 mm | - | - | - |
| 1787425929 | 32.22° C | 64% | 1015.6 hPa | 0 mm | - | - | - |
| 1787425629 | 32.22° C | 68% | 1015.5 hPa | 0 mm | - | - | - |
| 1787425449 | 32.22° C | 69% | 1015.8 hPa | 0 mm | - | - | - |
| 1787425329 | 32.22° C | 69% | 1015.8 hPa | 0 mm | - | - | - |
| 1787425147 | 32.22° C | 67% | 1015.7 hPa | 0 mm | - | - | - |
| 1787425029 | 32.22° C | 67% | 1015.7 hPa | 0 mm | - | - | - |
| 1787424729 | 32.22° C | 67% | 1015.5 hPa | 0 mm | - | - | - |
| 1787424486 | 32.22° C | 67% | 1015.7 hPa | 0 mm | - | - | - |
| 1787424429 | 32.22° C | 67% | 1015.7 hPa | 0 mm | - | - | - |
* Rain latest hour (hover to see other rain measurements)
** Current wind speed in m/s (hover to see current wind gust speed)